| time (UTC) | temp C | wind direction | speed KPH | gust KPH | rain 1hr cm | rain 24hr cm | rain mn cm | humidity % | barometer mb |
| 20260507094002 | 8 | 252 | 1.6 | 11.3 | 0.00 | 0.00 | 0.00 | 69 | 1013.1 |
| 20260507093511 | 8 | 217 | 3.2 | 12.9 | 0.00 | 0.00 | 0.00 | 69 | 1013.1 |
| 20260507093018 | 7 | 275 | 4.8 | 12.9 | 0.00 | 0.00 | 0.00 | 69 | 1013.2 |
| 20260507092508 | 7 | 235 | 3.2 | 9.7 | 0.00 | 0.00 | 0.00 | 68 | 1013.2 |
| 20260507092006 | 7 | 241 | 3.2 | 9.7 | 0.00 | 0.00 | 0.00 | 68 | 1013.2 |
| 20260507091506 | 7 | 147 | 3.2 | 12.9 | 0.00 | 0.00 | 0.00 | 68 | 1013.3 |
| 20260507091011 | 7 | 231 | 4.8 | 12.9 | 0.00 | 0.00 | 0.00 | 68 | 1013.3 |
| 20260507090507 | 7 | 252 | 4.8 | 12.9 | 0.00 | 0.00 | 0.00 | 67 | 1013.4 |
| 20260507090008 | 7 | 265 | 4.8 | 12.9 | 0.00 | 0.00 | 0.00 | 67 | 1013.5 |
| 20260507085504 | 7 | 244 | 3.2 | 6.4 | 0.00 | 0.00 | 0.00 | 67 | 1013.5 |
| 20260507085005 | 7 | 229 | 3.2 | 8.0 | 0.00 | 0.00 | 0.00 | 67 | 1013.6 |
| 20260507084520 | 7 | 265 | 3.2 | 8.0 | 0.00 | 0.00 | 0.00 | 66 | 1013.6 |
| 20260507084004 | 7 | 246 | 0.0 | 11.3 | 0.00 | 0.00 | 0.00 | 66 | 1013.7 |
| 20260507083504 | 7 | 240 | 3.2 | 11.3 | 0.00 | 0.00 | 0.00 | 66 | 1013.7 |
| 20260507083018 | 7 | 265 | 1.6 | 6.4 | 0.00 | 0.00 | 0.00 | 65 | 1013.7 |
| 20260507082507 | 7 | 269 | 1.6 | 6.4 | 0.00 | 0.00 | 0.00 | 64 | 1013.8 |
| 20260507082002 | 7 | 244 | 1.6 | 6.4 | 0.00 | 0.00 | 0.00 | 64 | 1013.9 |
| 20260507081522 | 7 | 292 | 1.6 | 9.7 | 0.00 | 0.00 | 0.00 | 63 | 1013.9 |
| 20260507081004 | 7 | 252 | 0.0 | 8.0 | 0.00 | 0.00 | 0.00 | 62 | 1014.0 |
| 20260507080508 | 7 | 252 | 0.0 | 9.7 | 0.00 | 0.00 | 0.00 | 62 | 1014.0 |
| 20260507080020 | 7 | 250 | 3.2 | 8.0 | 0.00 | 0.00 | 0.00 | 62 | 1014.0 |
| 20260507075504 | 7 | 233 | 3.2 | 8.0 | 0.00 | 0.00 | 0.00 | 61 | 1014.1 |
| 20260507075003 | 7 | 277 | 3.2 | 8.0 | 0.00 | 0.00 | 0.00 | 60 | 1014.2 |
| 20260507074510 | 7 | 229 | 3.2 | 8.0 | 0.00 | 0.00 | 0.00 | 60 | 1014.2 |
| 20260507074006 | 7 | 260 | 1.6 | 6.4 | 0.00 | 0.00 | 0.00 | 60 | 1014.2 |
| 20260507073505 | 7 | 280 | 1.6 | 8.0 | 0.00 | 0.00 | 0.00 | 60 | 1014.3 |
| 20260507073013 | 7 | 260 | 3.2 | 8.0 | 0.00 | 0.00 | 0.00 | 60 | 1014.3 |
| 20260507072505 | 7 | 252 | 1.6 | 6.4 | 0.00 | 0.00 | 0.00 | 60 | 1014.4 |
| 20260507072009 | 7 | 260 | 0.0 | 6.4 | 0.00 | 0.00 | 0.00 | 59 | 1014.4 |
| 20260507071511 | 7 | 248 | 1.6 | 6.4 | 0.00 | 0.00 | 0.00 | 59 | 1014.5 |
| 20260507071007 | 7 | 235 | 1.6 | 4.8 | 0.00 | 0.00 | 0.00 | 57 | 1014.5 |
| 20260507070504 | 7 | 237 | 0.0 | 8.0 | 0.00 | 0.00 | 0.00 | 57 | 1014.7 |
| 20260507070025 | 7 | 237 | 1.6 | 8.0 | 0.00 | 0.00 | 0.00 | 56 | 1014.7 |
| 20260507065508 | 7 | 252 | 1.6 | 4.8 | 0.00 | 0.00 | 0.00 | 57 | 1014.8 |
| 20260507065005 | 6 | 248 | 0.0 | 6.4 | 0.00 | 0.00 | 0.00 | 57 | 1014.9 |
| 20260507064526 | 6 | 246 | 0.0 | 6.4 | 0.00 | 0.00 | 0.00 | 58 | 1015.0 |
| 20260507064005 | 5 | 240 | 1.6 | 6.4 | 0.00 | 0.00 | 0.00 | 60 | 1015.0 |
| 20260507063506 | 5 | 217 | 0.0 | 3.2 | 0.00 | 0.00 | 0.00 | 61 | 1015.0 |
| 20260507063025 | 5 | 195 | 0.0 | 3.2 | 0.00 | 0.00 | 0.00 | 61 | 1015.1 |
| 20260507062505 | 5 | 195 | 0.0 | 1.6 | 0.00 | 0.00 | 0.00 | 60 | 1015.2 |
| 20260507062004 | 5 | 195 | 0.0 | 1.6 | 0.00 | 0.00 | 0.00 | 60 | 1015.1 |
| 20260507061520 | 6 | 195 | 0.0 | 0.0 | 0.00 | 0.00 | 0.00 | 59 | 1015.2 |
| 20260507061005 | 6 | 195 | 0.0 | 0.0 | 0.00 | 0.00 | 0.00 | 58 | 1015.3 |
| 20260507060506 | 6 | 195 | 0.0 | 0.0 | 0.00 | 0.00 | 0.00 | 59 | 1015.4 |
| 20260507060035 | 6 | 195 | 0.0 | 0.0 | 0.00 | 0.00 | 0.00 | 58 | 1015.4 |
| 20260507055504 | 6 | 195 | 0.0 | 1.6 | 0.00 | 0.00 | 0.00 | 57 | 1015.4 |
| 20260507055011 | 6 | 195 | 0.0 | 1.6 | 0.00 | 0.00 | 0.00 | 57 | 1015.4 |
| 20260507054517 | 7 | 194 | 0.0 | 3.2 | 0.00 | 0.00 | 0.00 | 57 | 1015.4 |
| 20260507054009 | 7 | 195 | 0.0 | 4.8 | 0.00 | 0.00 | 0.00 | 56 | 1015.4 |
| 20260507053507 | 7 | 195 | 1.6 | 4.8 | 0.00 | 0.00 | 0.00 | 55 | 1015.4 |
| 20260507053014 | 7 | 169 | 3.2 | 4.8 | 0.00 | 0.00 | 0.00 | 55 | 1015.2 |
| 20260507052504 | 7 | 174 | 1.6 | 4.8 | 0.00 | 0.00 | 0.00 | 55 | 1015.2 |
| 20260507052006 | 7 | 190 | 1.6 | 3.2 | 0.00 | 0.00 | 0.00 | 55 | 1015.3 |
| 20260507051514 | 7 | 191 | 1.6 | 3.2 | 0.00 | 0.00 | 0.00 | 55 | 1015.4 |
| 20260507051006 | 7 | 191 | 1.6 | 3.2 | 0.00 | 0.00 | 0.00 | 54 | 1015.5 |
| 20260507050504 | 7 | 191 | 1.6 | 3.2 | 0.00 | 0.00 | 0.00 | 54 | 1015.4 |
| 20260507050023 | 7 | 191 | 1.6 | 3.2 | 0.00 | 0.00 | 0.00 | 54 | 1015.5 |
| 20260507045506 | 7 | 191 | 1.6 | 3.2 | 0.00 | 0.00 | 0.00 | 54 | 1015.4 |
| 20260507045007 | 7 | 191 | 1.6 | 3.2 | 0.00 | 0.00 | 0.00 | 53 | 1015.4 |
| 20260507044522 | 7 | 191 | 1.6 | 3.2 | 0.00 | 0.00 | 0.00 | 53 | 1015.5 |
| 20260507044008 | 7 | 191 | 1.6 | 3.2 | 0.00 | 0.00 | 0.00 | 52 | 1015.6 |
| 20260507043505 | 7 | 191 | 1.6 | 3.2 | 0.00 | 0.00 | 0.00 | 52 | 1015.6 |
| 20260507043024 | 7 | 191 | 1.6 | 4.8 | 0.00 | 0.00 | 0.00 | 52 | 1015.6 |
| 20260507042506 | 7 | 191 | 3.2 | 4.8 | 0.00 | 0.00 | 0.00 | 52 | 1015.6 |
| 20260507042009 | 7 | 193 | 3.2 | 4.8 | 0.00 | 0.00 | 0.00 | 52 | 1015.7 |
| 20260507041510 | 7 | 193 | 3.2 | 4.8 | 0.00 | 0.00 | 0.00 | 52 | 1015.7 |
| 20260507041007 | 7 | 202 | 1.6 | 4.8 | 0.00 | 0.00 | 0.00 | 51 | 1015.7 |
| 20260507040506 | 7 | 207 | 1.6 | 4.8 | 0.00 | 0.00 | 0.00 | 51 | 1015.7 |
| 20260507040018 | 7 | 207 | 3.2 | 4.8 | 0.00 | 0.00 | 0.00 | 50 | 1015.7 |
| 20260507035506 | 7 | 209 | 3.2 | 4.8 | 0.00 | 0.00 | 0.00 | 49 | 1015.8 |
| 20260507035008 | 7 | 211 | 3.2 | 4.8 | 0.00 | 0.00 | 0.00 | 49 | 1015.8 |
| 20260507034531 | 7 | 213 | 3.2 | 4.8 | 0.00 | 0.00 | 0.00 | 49 | 1015.8 |
| 20260507034013 | 7 | 217 | 3.2 | 3.2 | 0.00 | 0.00 | 0.00 | 48 | 1015.9 |
| 20260507033512 | 7 | 252 | 3.2 | 3.2 | 0.00 | 0.00 | 0.00 | 48 | 1015.9 |
| 20260507033016 | 7 | 280 | 3.2 | 3.2 | 0.00 | 0.00 | 0.00 | 47 | 1015.9 |
| 20260507032508 | 8 | 322 | 1.6 | 3.2 | 0.00 | 0.00 | 0.00 | 46 | 1015.9 |
| 20260507032013 | 8 | 325 | 1.6 | 1.6 | 0.00 | 0.00 | 0.00 | 46 | 1015.9 |
| 20260507031514 | 8 | 324 | 0.0 | 1.6 | 0.00 | 0.00 | 0.00 | 45 | 1015.9 |
| 20260507031007 | 8 | 325 | 0.0 | 1.6 | 0.00 | 0.00 | 0.00 | 45 | 1015.9 |
| 20260507030508 | 8 | 325 | 0.0 | 3.2 | 0.00 | 0.00 | 0.00 | 45 | 1015.9 |
| 20260507030016 | 8 | 325 | 0.0 | 3.2 | 0.00 | 0.00 | 0.00 | 44 | 1015.9 |
| 20260507025506 | 9 | 324 | 0.0 | 3.2 | 0.00 | 0.00 | 0.00 | 43 | 1015.9 |
| 20260507025008 | 9 | 325 | 0.0 | 3.2 | 0.00 | 0.00 | 0.00 | 42 | 1015.9 |
| 20260507024525 | 9 | 325 | 1.6 | 3.2 | 0.00 | 0.00 | 0.00 | 41 | 1015.9 |
| 20260507024009 | 10 | 325 | 0.0 | 0.0 | 0.00 | 0.00 | 0.00 | 39 | 1015.8 |
| 20260507023505 | 10 | 325 | 0.0 | 0.0 | 0.00 | 0.00 | 0.00 | 39 | 1015.8 |
| 20260507023025 | 10 | 324 | 0.0 | 0.0 | 0.00 | 0.00 | 0.00 | 38 | 1015.8 |
| 20260507022507 | 10 | 324 | 0.0 | 0.0 | 0.00 | 0.00 | 0.00 | 39 | 1015.8 |
| 20260507022013 | 10 | 324 | 0.0 | 0.0 | 0.00 | 0.00 | 0.00 | 38 | 1015.7 |
| 20260507021526 | 10 | 325 | 0.0 | 0.0 | 0.00 | 0.00 | 0.00 | 38 | 1015.8 |
| 20260507021005 | 11 | 325 | 0.0 | 0.0 | 0.00 | 0.00 | 0.00 | 37 | 1015.8 |
| 20260507020509 | 11 | 325 | 0.0 | 0.0 | 0.00 | 0.00 | 0.00 | 36 | 1015.8 |
| 20260507020030 | 11 | 325 | 0.0 | 0.0 | 0.00 | 0.00 | 0.00 | 36 | 1015.8 |
| 20260507015506 | 11 | 325 | 0.0 | 0.0 | 0.00 | 0.00 | 0.00 | 36 | 1015.7 |
| 20260507015007 | 12 | 324 | 0.0 | 3.2 | 0.00 | 0.00 | 0.00 | 35 | 1015.7 |
| 20260507014516 | 12 | 325 | 0.0 | 3.2 | 0.00 | 0.00 | 0.00 | 35 | 1015.8 |
| 20260507014006 | 12 | 324 | 0.0 | 3.2 | 0.00 | 0.00 | 0.00 | 34 | 1015.7 |
| 20260507013505 | 12 | 324 | 0.0 | 1.6 | 0.00 | 0.00 | 0.00 | 32 | 1015.7 |
| 20260507013036 | 13 | 325 | 0.0 | 3.2 | 0.00 | 0.00 | 0.00 | 32 | 1015.7 |
| 20260507012508 | 13 | 324 | 0.0 | 3.2 | 0.00 | 0.00 | 0.00 | 31 | 1015.6 |
| 20260507012010 | 13 | 325 | 0.0 | 3.2 | 0.00 | 0.00 | 0.00 | 30 | 1015.6 |
| 20260507011518 | 13 | 325 | 0.0 | 4.8 | 0.00 | 0.00 | 0.00 | 29 | 1015.7 |
| 20260507011007 | 13 | 325 | 1.6 | 4.8 | 0.00 | 0.00 | 0.00 | 29 | 1015.7 |
| 20260507010507 | 14 | 328 | 0.0 | 8.0 | 0.00 | 0.00 | 0.00 | 28 | 1015.7 |
| 20260507010034 | 14 | 320 | 1.6 | 9.7 | 0.00 | 0.00 | 0.00 | 28 | 1015.7 |
| 20260507005513 | 14 | 302 | 4.8 | 9.7 | 0.00 | 0.00 | 0.00 | 28 | 1015.7 |
| 20260507005007 | 14 | 7 | 0.0 | 6.4 | 0.00 | 0.00 | 0.00 | 27 | 1015.7 |
| 20260507004526 | 14 | 21 | 1.6 | 9.7 | 0.00 | 0.00 | 0.00 | 26 | 1015.7 |
| 20260507004008 | 15 | 325 | 4.8 | 9.7 | 0.00 | 0.00 | 0.00 | 26 | 1015.8 |
| 20260507003507 | 15 | 338 | 3.2 | 16.1 | 0.00 | 0.00 | 0.00 | 26 | 1015.7 |
| 20260507003022 | 15 | 317 | 8.0 | 16.1 | 0.00 | 0.00 | 0.00 | 26 | 1015.8 |
| 20260507002509 | 15 | 340 | 1.6 | 8.0 | 0.00 | 0.00 | 0.00 | 26 | 1015.8 |
| 20260507002009 | 15 | 353 | 1.6 | 8.0 | 0.00 | 0.00 | 0.00 | 27 | 1015.8 |
| 20260507001529 | 15 | 305 | 4.8 | 11.3 | 0.00 | 0.00 | 0.00 | 25 | 1016.0 |
| 20260507001012 | 16 | 316 | 6.4 | 12.9 | 0.00 | 0.00 | 0.00 | 25 | 1015.9 |
| 20260507000507 | 16 | 286 | 3.2 | 14.5 | 0.00 | 0.00 | 0.00 | 1016.0 | |
| 20260507000026 | 16 | 285 | 4.8 | 17.7 | 0.00 | 0.00 | 0.00 | 25 | 1016.1 |
| 20260506235503 | 16 | 315 | 4.8 | 17.7 | 0.00 | 0.00 | 0.00 | 25 | 1016.1 |
| 20260506235007 | 16 | 282 | 8.0 | 17.7 | 0.00 | 0.00 | 0.00 | 25 | 1016.1 |
| 20260506234530 | 16 | 279 | 6.4 | 17.7 | 0.00 | 0.00 | 0.00 | 25 | 1016.3 |
| 20260506234006 | 16 | 296 | 6.4 | 17.7 | 0.00 | 0.00 | 0.00 | 25 | 1016.3 |
| 20260506233503 | 16 | 315 | 8.0 | 17.7 | 0.00 | 0.00 | 0.00 | 26 | 1016.3 |
| 20260506233017 | 16 | 314 | 8.0 | 16.1 | 0.00 | 0.00 | 0.00 | 25 | 1016.2 |
| 20260506232502 | 16 | 298 | 6.4 | 16.1 | 0.00 | 0.00 | 0.00 | 24 | 1016.2 |
| 20260506232004 | 16 | 342 | 3.2 | 8.0 | 0.00 | 0.00 | 0.00 | 25 | 1016.3 |
| 20260506231516 | 16 | 298 | 3.2 | 16.1 | 0.00 | 0.00 | 0.00 | 25 | 1016.3 |
| 20260506231002 | 16 | 321 | 4.8 | 19.3 | 0.00 | 0.00 | 0.00 | 26 | 1016.4 |
| 20260506230504 | 16 | 333 | 4.8 | 19.3 | 0.00 | 0.00 | 0.00 | 25 | 1016.5 |
| 20260506230004 | 16 | 327 | 9.7 | 17.7 | 0.00 | 0.00 | 0.00 | 25 | 1016.5 |
| 20260506225503 | 16 | 297 | 8.0 | 17.7 | 0.00 | 0.00 | 0.00 | 26 | 1016.5 |
| 20260506225004 | 16 | 280 | 8.0 | 17.7 | 0.00 | 0.00 | 0.00 | 25 | 1016.5 |
| 20260506224509 | 16 | 302 | 4.8 | 19.3 | 0.00 | 0.00 | 0.00 | 27 | 1016.4 |
| 20260506224003 | 16 | 304 | 8.0 | 19.3 | 0.00 | 0.00 | 0.00 | 25 | 1016.5 |
| 20260506223505 | 16 | 327 | 6.4 | 25.7 | 0.00 | 0.00 | 0.00 | 26 | 1016.5 |
| 20260506223010 | 16 | 319 | 11.3 | 25.7 | 0.00 | 0.00 | 0.00 | 26 | 1016.6 |
| 20260506222506 | 16 | 30 | 6.4 | 24.1 | 0.00 | 0.00 | 0.00 | 28 | 1016.6 |
| 20260506222007 | 16 | 322 | 14.5 | 24.1 | 0.00 | 0.00 | 0.00 | 25 | 1016.7 |
| 20260506221508 | 16 | 323 | 9.7 | 22.5 | 0.00 | 0.00 | 0.00 | 26 | 1016.7 |
| 20260506221007 | 16 | 317 | 11.3 | 22.5 | 0.00 | 0.00 | 0.00 | 27 | 1016.8 |
| 20260506220507 | 16 | 343 | 11.3 | 27.4 | 0.00 | 0.00 | 0.00 | 25 | 1016.8 |
| 20260506220012 | 16 | 15 | 12.9 | 27.4 | 0.00 | 0.00 | 0.00 | 26 | 1016.8 |
| 20260506215504 | 16 | 354 | 11.3 | 17.7 | 0.00 | 0.00 | 0.00 | 28 | 1016.8 |
| 20260506215005 | 16 | 3 | 6.4 | 20.9 | 0.00 | 0.00 | 0.00 | 28 | 1016.9 |
| 20260506214507 | 16 | 350 | 9.7 | 25.7 | 0.00 | 0.00 | 0.00 | 26 | 1017.1 |
| 20260506214004 | 16 | 304 | 9.7 | 25.7 | 0.00 | 0.00 | 0.00 | 28 | 1017.0 |
| 20260506213506 | 16 | 7 | 14.5 | 29.0 | 0.00 | 0.00 | 0.00 | 26 | 1017.1 |
| 20260506213012 | 16 | 304 | 14.5 | 29.0 | 0.00 | 0.00 | 0.00 | 27 | 1017.1 |
| 20260506212506 | 16 | 327 | 14.5 | 22.5 | 0.00 | 0.00 | 0.00 | 27 | 1017.1 |
| 20260506212004 | 16 | 279 | 8.0 | 20.9 | 0.00 | 0.00 | 0.00 | 28 | 1017.2 |
| 20260506211525 | 16 | 299 | 6.4 | 14.5 | 0.00 | 0.00 | 0.00 | 28 | 1017.2 |
| 20260506211008 | 16 | 320 | 8.0 | 16.1 | 0.00 | 0.00 | 0.00 | 29 | 1017.3 |
| 20260506210508 | 15 | 252 | 8.0 | 22.5 | 0.00 | 0.00 | 0.00 | 26 | 1017.3 |
| 20260506210028 | 16 | 360 | 9.7 | 22.5 | 0.00 | 0.00 | 0.00 | 28 | 1017.5 |
| 20260506205505 | 15 | 334 | 3.2 | 20.9 | 0.00 | 0.00 | 0.00 | 31 | 1017.5 |
| 20260506205015 | 14 | 326 | 8.0 | 20.9 | 0.00 | 0.00 | 0.00 | 27 | 1017.5 |
| 20260506204506 | 15 | 309 | 11.3 | 20.9 | 0.00 | 0.00 | 0.00 | 29 | 1017.6 |
| 20260506204005 | 15 | 6 | 9.7 | 17.7 | 0.00 | 0.00 | 0.00 | 28 | 1017.7 |
| 20260506203504 | 15 | 321 | 9.7 | 27.4 | 0.00 | 0.00 | 0.00 | 27 | 1017.7 |
| 20260506203008 | 15 | 358 | 12.9 | 24.1 | 0.00 | 0.00 | 0.00 | 29 | 1017.7 |
| 20260506202509 | 15 | 278 | 11.3 | 27.4 | 0.00 | 0.00 | 0.00 | 30 | 1017.8 |
| 20260506202006 | 15 | 313 | 11.3 | 29.0 | 0.00 | 0.00 | 0.00 | 28 | 1017.9 |
| 20260506201512 | 15 | 317 | 16.1 | 29.0 | 0.00 | 0.00 | 0.00 | 27 | 1018.0 |
| 20260506201011 | 15 | 334 | 11.3 | 22.5 | 0.00 | 0.00 | 0.00 | 28 | 1017.9 |
| 20260506200506 | 15 | 3 | 8.0 | 24.1 | 0.00 | 0.00 | 0.00 | 30 | 1018.0 |
| 20260506200015 | 15 | 309 | 11.3 | 27.4 | 0.00 | 0.00 | 0.00 | 30 | 1018.1 |
| 20260506195507 | 15 | 350 | 11.3 | 27.4 | 0.00 | 0.00 | 0.00 | 29 | 1018.2 |
| 20260506195004 | 15 | 299 | 9.7 | 22.5 | 0.00 | 0.00 | 0.00 | 30 | 1018.2 |
| 20260506194506 | 14 | 305 | 8.0 | 19.3 | 0.00 | 0.00 | 0.00 | 30 | 1018.2 |
| 20260506194008 | 14 | 296 | 9.7 | 24.1 | 0.00 | 0.00 | 0.00 | 31 | 1018.2 |
| 20260506193505 | 15 | 26 | 11.3 | 27.4 | 0.00 | 0.00 | 0.00 | 29 | 1018.2 |
| 20260506193009 | 15 | 325 | 9.7 | 27.4 | 0.00 | 0.00 | 0.00 | 32 | 1018.2 |
| 20260506192504 | 15 | 302 | 11.3 | 20.9 | 0.00 | 0.00 | 0.00 | 33 | 1018.4 |
| 20260506192006 | 15 | 340 | 9.7 | 19.3 | 0.00 | 0.00 | 0.00 | 33 | 1018.3 |
| 20260506191514 | 14 | 317 | 6.4 | 25.7 | 0.00 | 0.00 | 0.00 | 31 | 1018.3 |
| 20260506191005 | 14 | 326 | 6.4 | 25.7 | 0.00 | 0.00 | 0.00 | 31 | 1018.3 |
| 20260506190503 | 14 | 23 | 9.7 | 22.5 | 0.00 | 0.00 | 0.00 | 30 | 1018.3 |
| 20260506190019 | 14 | 260 | 8.0 | 25.7 | 0.00 | 0.00 | 0.00 | 31 | 1018.3 |
| 20260506185511 | 14 | 296 | 16.1 | 33.8 | 0.00 | 0.00 | 0.00 | 1018.5 | |
| 20260506185008 | 14 | 1 | 4.8 | 33.8 | 0.00 | 0.00 | 0.00 | 1018.4 | |
| 20260506184518 | 14 | 17 | 12.9 | 33.8 | 0.00 | 0.00 | 0.00 | 1018.6 | |
| 20260506184008 | 14 | 328 | 9.7 | 24.1 | 0.00 | 0.00 | 0.00 | 32 | 1018.6 |
| 20260506183509 | 15 | 5 | 12.9 | 30.6 | 0.00 | 0.00 | 0.00 | 32 | 1018.7 |
| 20260506183019 | 14 | 329 | 16.1 | 30.6 | 0.00 | 0.00 | 0.00 | 33 | 1018.7 |
| 20260506182504 | 13 | 316 | 8.0 | 22.5 | 0.00 | 0.00 | 0.00 | 31 | 1018.7 |
| 20260506182004 | 13 | 330 | 9.7 | 16.1 | 0.00 | 0.00 | 0.00 | 31 | 1018.7 |
| 20260506181516 | 13 | 295 | 6.4 | 17.7 | 0.00 | 0.00 | 0.00 | 33 | 1018.7 |
| 20260506181006 | 13 | 325 | 6.4 | 17.7 | 0.00 | 0.00 | 0.00 | 34 | 1018.8 |
| 20260506180505 | 12 | 303 | 8.0 | 19.3 | 0.00 | 0.00 | 0.00 | 33 | 1018.8 |
| 20260506180016 | 12 | 313 | 11.3 | 25.7 | 0.00 | 0.00 | 0.00 | 33 | 1018.9 |
| 20260506175505 | 13 | 327 | 9.7 | 25.7 | 0.00 | 0.00 | 0.00 | 33 | 1018.9 |
| 20260506175007 | 13 | 16 | 9.7 | 20.9 | 0.00 | 0.00 | 0.00 | 34 | 1019.0 |
| 20260506174507 | 13 | 6 | 9.7 | 24.1 | 0.00 | 0.00 | 0.00 | 32 | 1018.9 |
| 20260506174007 | 13 | 27 | 12.9 | 24.1 | 0.00 | 0.00 | 0.00 | 32 | 1019.1 |
| 20260506173504 | 13 | 318 | 12.9 | 24.1 | 0.00 | 0.00 | 0.00 | 34 | 1019.1 |
| 20260506173024 | 13 | 18 | 12.9 | 24.1 | 0.00 | 0.00 | 0.00 | 38 | 1019.2 |
| 20260506172509 | 13 | 326 | 4.8 | 24.1 | 0.00 | 0.00 | 0.00 | 36 | 1019.2 |
| 20260506172003 | 12 | 3 | 12.9 | 24.1 | 0.00 | 0.00 | 0.00 | 36 | 1019.4 |
| 20260506171508 | 12 | 29 | 6.4 | 24.1 | 0.00 | 0.00 | 0.00 | 37 | 1019.4 |
| 20260506171004 | 12 | 321 | 9.7 | 24.1 | 0.00 | 0.00 | 0.00 | 33 | 1019.6 |
| 20260506170504 | 13 | 297 | 11.3 | 24.1 | 0.00 | 0.00 | 0.00 | 37 | 1019.6 |
| 20260506170013 | 12 | 14 | 4.8 | 17.7 | 0.00 | 0.00 | 0.00 | 37 | 1019.5 |
| 20260506165506 | 12 | 1 | 4.8 | 20.9 | 0.00 | 0.00 | 0.00 | 35 | 1019.7 |
| 20260506165006 | 12 | 336 | 9.7 | 27.4 | 0.00 | 0.00 | 0.00 | 36 | 1019.8 |
| 20260506164516 | 12 | 338 | 8.0 | 27.4 | 0.00 | 0.00 | 0.00 | 33 | 1019.7 |
| 20260506164008 | 12 | 308 | 12.9 | 25.7 | 0.00 | 0.00 | 0.00 | 33 | 1019.8 |
| 20260506163507 | 12 | 28 | 11.3 | 22.5 | 0.00 | 0.00 | 0.00 | 38 | 1019.8 |
| 20260506163024 | 12 | 311 | 11.3 | 19.3 | 0.00 | 0.00 | 0.00 | 35 | 1019.8 |
| 20260506162503 | 12 | 333 | 6.4 | 20.9 | 0.00 | 0.00 | 0.00 | 35 | 1019.8 |
| 20260506162010 | 12 | 4 | 9.7 | 20.9 | 0.00 | 0.00 | 0.00 | 35 | 1019.8 |
| 20260506161515 | 12 | 26 | 6.4 | 19.3 | 0.00 | 0.00 | 0.00 | 37 | 1019.6 |
| 20260506161007 | 12 | 28 | 11.3 | 19.3 | 0.00 | 0.00 | 0.00 | 35 | 1019.6 |
| 20260506160508 | 12 | 341 | 9.7 | 25.7 | 0.00 | 0.00 | 0.00 | 35 | 1019.6 |
| 20260506160015 | 12 | 33 | 11.3 | 25.7 | 0.00 | 0.00 | 0.00 | 37 | 1019.8 |
| 20260506155509 | 11 | 321 | 6.4 | 16.1 | 0.00 | 0.00 | 0.00 | 37 | 1019.7 |
| 20260506155003 | 11 | 304 | 6.4 | 19.3 | 0.00 | 0.00 | 0.00 | 37 | 1019.6 |
| 20260506154512 | 11 | 315 | 11.3 | 19.3 | 0.00 | 0.00 | 0.00 | 36 | 1019.6 |
| 20260506154008 | 12 | 347 | 8.0 | 20.9 | 0.00 | 0.00 | 0.00 | 39 | 1019.6 |
| 20260506153508 | 12 | 38 | 6.4 | 20.9 | 0.00 | 0.00 | 0.00 | 36 | 1019.6 |
| 20260506153018 | 12 | 338 | 8.0 | 14.5 | 0.00 | 0.00 | 0.00 | 38 | 1019.6 |
| 20260506152507 | 12 | 34 | 6.4 | 14.5 | 0.00 | 0.00 | 0.00 | 35 | 1019.6 |
| 20260506152007 | 12 | 304 | 6.4 | 19.3 | 0.00 | 0.00 | 0.00 | 35 | 1019.7 |
| 20260506151525 | 12 | 32 | 11.3 | 19.3 | 0.00 | 0.00 | 0.00 | 36 | 1019.7 |
| 20260506151007 | 11 | 61 | 8.0 | 20.9 | 0.00 | 0.00 | 0.00 | 35 | 1019.7 |
| 20260506150505 | 11 | 17 | 6.4 | 20.9 | 0.00 | 0.00 | 0.00 | 37 | 1019.7 |
| 20260506150022 | 11 | 17 | 8.0 | 17.7 | 0.00 | 0.00 | 0.00 | 38 | 1019.8 |
| 20260506145508 | 11 | 23 | 9.7 | 17.7 | 0.00 | 0.00 | 0.00 | 37 | 1019.7 |
| 20260506145004 | 11 | 26 | 8.0 | 17.7 | 0.00 | 0.00 | 0.00 | 41 | 1019.7 |
| 20260506144510 | 11 | 19 | 9.7 | 17.7 | 0.00 | 0.00 | 0.00 | 40 | 1019.8 |
| 20260506144004 | 11 | 350 | 4.8 | 12.9 | 0.00 | 0.00 | 0.00 | 40 | 1019.8 |
| 20260506143505 | 11 | 49 | 4.8 | 12.9 | 0.00 | 0.00 | 0.00 | 44 | 1019.8 |
| 20260506143016 | 10 | 305 | 4.8 | 12.9 | 0.00 | 0.00 | 0.00 | 42 | 1019.8 |
| 20260506142507 | 10 | 315 | 4.8 | 12.9 | 0.00 | 0.00 | 0.00 | 44 | 1019.7 |
| 20260506142007 | 10 | 310 | 4.8 | 12.9 | 0.00 | 0.00 | 0.00 | 40 | 1019.7 |
| 20260506141520 | 10 | 296 | 4.8 | 12.9 | 0.00 | 0.00 | 0.00 | 40 | 1019.6 |
| 20260506141011 | 10 | 325 | 4.8 | 8.0 | 0.00 | 0.00 | 0.00 | 46 | 1019.6 |
| 20260506140509 | 10 | 272 | 3.2 | 11.3 | 0.00 | 0.00 | 0.00 | 44 | 1019.6 |
| 20260506140016 | 9 | 334 | 4.8 | 11.3 | 0.00 | 0.00 | 0.00 | 45 | 1019.6 |
| 20260506135506 | 9 | 298 | 1.6 | 8.0 | 0.00 | 0.00 | 0.00 | 48 | 1019.5 |
| 20260506135006 | 9 | 308 | 1.6 | 9.7 | 0.00 | 0.00 | 0.00 | 48 | 1019.4 |
| 20260506134512 | 8 | 352 | 4.8 | 9.7 | 0.00 | 0.00 | 0.00 | 49 | 1019.4 |
| 20260506134005 | 8 | 331 | 3.2 | 6.4 | 0.00 | 0.00 | 0.00 | 49 | 1019.4 |
| 20260506133506 | 8 | 311 | 3.2 | 8.0 | 0.00 | 0.00 | 0.00 | 49 | 1019.3 |
| 20260506133016 | 8 | 319 | 4.8 | 8.0 | 0.00 | 0.00 | 0.00 | 48 | 1019.3 |
| 20260506132506 | 8 | 327 | 3.2 | 8.0 | 0.00 | 0.00 | 0.00 | 52 | 1019.2 |
| 20260506132013 | 7 | 321 | 1.6 | 6.4 | 0.00 | 0.00 | 0.00 | 54 | 1019.1 |
| 20260506131519 | 7 | 356 | 3.2 | 8.0 | 0.00 | 0.00 | 0.00 | 54 | 1019.1 |
| 20260506131008 | 7 | 322 | 4.8 | 8.0 | 0.00 | 0.00 | 0.00 | 54 | 1019.0 |
| 20260506130504 | 7 | 324 | 3.2 | 6.4 | 0.00 | 0.00 | 0.00 | 55 | 1019.0 |
| 20260506130026 | 6 | 325 | 3.2 | 8.0 | 0.00 | 0.00 | 0.00 | 54 | 1018.9 |
| 20260506125509 | 6 | 7 | 3.2 | 9.7 | 0.00 | 0.00 | 0.00 | 55 | 1018.9 |
| 20260506125011 | 6 | 5 | 3.2 | 9.7 | 0.00 | 0.00 | 0.00 | 54 | 1018.9 |
| 20260506124527 | 6 | 319 | 1.6 | 6.4 | 0.00 | 0.00 | 0.00 | 55 | 1018.8 |
| 20260506124007 | 6 | 325 | 3.2 | 6.4 | 0.00 | 0.00 | 0.00 | 55 | 1018.6 |
| 20260506123511 | 6 | 320 | 1.6 | 6.4 | 0.00 | 0.00 | 0.00 | 56 | 1018.5 |
| 20260506123031 | 6 | 309 | 3.2 | 6.4 | 0.00 | 0.00 | 0.00 | 56 | 1018.5 |
| 20260506122504 | 5 | 311 | 1.6 | 4.8 | 0.00 | 0.00 | 0.00 | 56 | 1018.3 |
| 20260506122006 | 5 | 311 | 1.6 | 4.8 | 0.00 | 0.00 | 0.00 | 57 | 1018.2 |
| 20260506121518 | 5 | 313 | 1.6 | 4.8 | 0.00 | 0.00 | 0.00 | 56 | 1018.2 |
| 20260506121006 | 5 | 313 | 1.6 | 4.8 | 0.00 | 0.00 | 0.00 | 56 | 1018.1 |
| 20260506120508 | 5 | 313 | 1.6 | 4.8 | 0.00 | 0.00 | 0.00 | 57 | 1018.1 |
| 20260506120020 | 4 | 313 | 1.6 | 4.8 | 0.00 | 0.00 | 0.00 | 58 | 1018.0 |
| 20260506115507 | 4 | 315 | 1.6 | 4.8 | 0.00 | 0.00 | 0.00 | 58 | 1018.0 |
| 20260506115008 | 4 | 321 | 1.6 | 3.2 | 0.00 | 0.00 | 0.00 | 57 | 1018.0 |
| 20260506114516 | 4 | 321 | 1.6 | 3.2 | 0.00 | 0.00 | 0.00 | 57 | 1017.8 |
| 20260506114005 | 4 | 321 | 1.6 | 3.2 | 0.00 | 0.00 | 0.00 | 56 | 1017.8 |
| 20260506113504 | 4 | 321 | 1.6 | 3.2 | 0.00 | 0.00 | 0.00 | 56 | 1017.8 |
| 20260506113011 | 4 | 321 | 1.6 | 3.2 | 0.00 | 0.00 | 0.00 | 56 | 1017.8 |
| 20260506112508 | 4 | 321 | 0.0 | 3.2 | 0.00 | 0.00 | 0.00 | 56 | 1017.7 |
| 20260506112006 | 4 | 321 | 1.6 | 3.2 | 0.00 | 0.00 | 0.00 | 56 | 1017.7 |
| 20260506111513 | 4 | 321 | 1.6 | 3.2 | 0.00 | 0.00 | 0.00 | 56 | 1017.7 |
| 20260506111003 | 5 | 321 | 1.6 | 3.2 | 0.00 | 0.00 | 0.00 | 54 | 1017.7 |
| 20260506110504 | 5 | 321 | 1.6 | 3.2 | 0.00 | 0.00 | 0.00 | 54 | 1017.6 |
| 20260506110008 | 5 | 321 | 1.6 | 3.2 | 0.00 | 0.00 | 0.00 | 53 | 1017.5 |
| 20260506105509 | 5 | 321 | 1.6 | 3.2 | 0.00 | 0.00 | 0.00 | 53 | 1017.6 |
| 20260506105004 | 5 | 322 | 1.6 | 3.2 | 0.00 | 0.00 | 0.00 | 53 | 1017.6 |
| 20260506104521 | 5 | 322 | 0.0 | 3.2 | 0.00 | 0.00 | 0.00 | 52 | 1017.6 |
| 20260506104007 | 5 | 322 | 0.0 | 3.2 | 0.00 | 0.00 | 0.00 | 51 | 1017.6 |
| 20260506103505 | 5 | 323 | 1.6 | 3.2 | 0.00 | 0.00 | 0.00 | 51 | 1017.6 |
| 20260506103013 | 5 | 323 | 0.0 | 3.2 | 0.00 | 0.00 | 0.00 | 51 | 1017.5 |
| 20260506102505 | 5 | 323 | 1.6 | 4.8 | 0.00 | 0.00 | 0.00 | 50 | 1017.4 |
| 20260506102003 | 5 | 325 | 1.6 | 4.8 | 0.00 | 0.00 | 0.00 | 50 | 1017.4 |
| 20260506101513 | 5 | 325 | 1.6 | 4.8 | 0.00 | 0.00 | 0.00 | 50 | 1017.3 |
| 20260506101005 | 6 | 325 | 1.6 | 4.8 | 0.00 | 0.00 | 0.00 | 50 | 1017.3 |
| 20260506100503 | 6 | 325 | 1.6 | 4.8 | 0.00 | 0.00 | 0.00 | 50 | 1017.3 |
| 20260506100017 | 6 | 321 | 0.0 | 4.8 | 0.00 | 0.00 | 0.00 | 50 | 1017.3 |
| 20260506095504 | 6 | 320 | 0.0 | 4.8 | 0.00 | 0.00 | 0.00 | 50 | 1017.2 |
| 20260506095008 | 6 | 321 | 1.6 | 3.2 | 0.00 | 0.00 | 0.00 | 49 | 1017.1 |
| 20260506094528 | 6 | 321 | 1.6 | 3.2 | 0.00 | 0.00 | 0.00 | 48 | 1017.0 |